Albion, NE

12:10 PM CST on November 22, 2019 (GMT -0600)
Albion Municipal

Weather History for KBVN - October, 2019

Change the Weather History Date:

Tuesday, October 22, 2019

  Actual Average (KOFK) Record (KOFK)
Temperature  
Mean Temperature 48 °F 49 °F  
Max Temperature 59 °F 61 °F 88 °F (1927)
Min Temperature 37 °F 36 °F 14 °F (1936)
Degree Days  
Heating Degree Days 17 16  
Month to date heating degree days 276  
Since 1 July heating degree days 418  
Cooling Degree Days 0 0  
Month to date cooling degree days 8  
Year to date cooling degree days 914  
Moisture  
Dew Point 31 °F    
Average Humidity 59    
Maximum Humidity 83    
Minimum Humidity 32    
Precipitation  
Precipitation 0.00 in 0.06 in 1.81 in (2008)
Month to date precipitation 1.61  
Year to date precipitation 24.83  
Snow  
Snow - 0.00 in - ()
Month to date snowfall 0.3  
Since 1 July snowfall 0.3  
Since 1 September snowfall 0.3  
Snow Depth -    
Sea Level Pressure  
Sea Level Pressure 29.90 in    
Wind  
Wind Speed 12 mph ()    
Max Wind Speed 20 mph    
Max Gust Speed 31 mph    
Visibility 10.0 miles    
Events      
T = Trace of Precipitation, MM = Missing Value Source: Averaged Metar Reports

Daily Weather History Graph

Daily Weather History Graph

Search for Another Location

Airport or City:

Astronomy

Oct. 22, 2019 Rise Set
Actual Time 7:52 AM CDT 6:40 PM CDT
Civil Twilight 7:23 AM CDT 7:08 PM CDT
Nautical Twilight 6:51 AM CDT 7:41 PM CDT
Astronomical Twilight 6:19 AM CDT 8:13 PM CDT
Moon 12:56 AM CDT 3:57 PM CDT
Length of Visible Light 11h 44m
Length of Day
10h 48m
Last Quarter, 37% of the Moon is Illuminated
Oct 22
Last Quarter
Oct 27
New
Nov 4
First Quarter
Nov 12
Full
Nov 19
Last Quarter

Hourly Weather History & Observations

Time (CDT) Temp. Windchill Dew Point Humidity Pressure Visibility Wind Dir Wind Speed Gust Speed Precip Events Conditions
12:15 AM 41.4 °F 32.7 °F 32.0 °F 69% 29.84 in 10.0 mi NW 18.4 mph 31.1 mph N/A   Clear
12:35 AM 41.2 °F 32.7 °F 32.0 °F 70% 29.85 in 10.0 mi NW 17.3 mph 25.3 mph N/A   Clear
12:55 AM 41.4 °F 32.4 °F 31.6 °F 68% 29.86 in 10.0 mi NW 19.6 mph 28.8 mph N/A   Clear
1:15 AM 41.0 °F 32.2 °F 31.8 °F 70% 29.86 in 10.0 mi NW 18.4 mph 25.3 mph N/A   Clear
1:35 AM 40.6 °F 32.3 °F 31.8 °F 71% 29.86 in 10.0 mi NW 16.1 mph 20.7 mph N/A   Clear
1:55 AM 40.8 °F 32.3 °F 31.8 °F 70% 29.86 in 10.0 mi NW 17.3 mph 23.0 mph N/A   Clear
2:15 AM 40.3 °F 32.2 °F 31.8 °F 72% 29.87 in 10.0 mi NW 15.0 mph 24.2 mph N/A   Clear
2:35 AM 40.3 °F 32.6 °F 31.8 °F 72% 29.88 in 10.0 mi NW 13.8 mph 26.5 mph N/A   Clear
2:55 AM 39.7 °F 30.9 °F 31.8 °F 73% 29.88 in 10.0 mi NW 17.3 mph 24.2 mph N/A   Clear
3:15 AM 39.4 °F 30.7 °F 31.6 °F 74% 29.88 in 10.0 mi NW 16.1 mph 23.0 mph N/A   Clear
3:35 AM 39.2 °F 30.8 °F 31.1 °F 73% 29.89 in 10.0 mi NW 15.0 mph 19.6 mph N/A   Clear
3:55 AM 38.7 °F 30.9 °F 30.9 °F 74% 29.89 in 10.0 mi NW 12.7 mph - N/A   Clear
4:15 AM 37.8 °F 30.2 °F 30.9 °F 76% 29.90 in 10.0 mi NW 11.5 mph 17.3 mph N/A   Clear
4:35 AM 37.9 °F 30.5 °F 30.7 °F 75% 29.91 in 10.0 mi WNW 11.5 mph 19.6 mph N/A   Clear
4:55 AM 37.8 °F 28.6 °F 30.9 °F 76% 29.91 in 10.0 mi WNW 16.1 mph 21.9 mph N/A   Clear
5:15 AM 38.3 °F 29.7 °F 30.7 °F 74% 29.91 in 10.0 mi WNW 15.0 mph 25.3 mph N/A   Clear
5:55 AM 37.9 °F 30.9 °F 30.2 °F 74% 29.92 in 10.0 mi WNW 10.4 mph 20.7 mph N/A   Clear
6:15 AM 37.6 °F 29.6 °F 30.2 °F 75% 29.92 in 10.0 mi NW 12.7 mph 20.7 mph N/A   Clear
6:35 AM 37.6 °F 30.5 °F 30.0 °F 74% 29.93 in 10.0 mi NW 10.4 mph 20.7 mph N/A   Clear
6:55 AM 37.6 °F 29.6 °F 30.0 °F 74% 29.93 in 10.0 mi NW 12.7 mph 20.7 mph N/A   Clear
7:15 AM 37.9 °F 30.0 °F 30.0 °F 73% 29.93 in 10.0 mi NW 12.7 mph 21.9 mph N/A   Clear
7:35 AM 37.4 °F 28.5 °F 29.8 °F 74% 29.94 in 10.0 mi WNW 15.0 mph 19.6 mph N/A   Clear
7:55 AM 37.0 °F 28.9 °F 29.7 °F 75% 29.95 in 10.0 mi NW 12.7 mph - N/A   Clear
8:15 AM 37.0 °F 29.3 °F 29.5 °F 74% 29.95 in 10.0 mi NW 11.5 mph 17.3 mph N/A   Clear
8:35 AM 37.6 °F 30.0 °F 29.8 °F 74% 29.95 in 10.0 mi NW 11.5 mph - N/A   Clear
8:55 AM 39.2 °F 31.2 °F 29.8 °F 69% 29.96 in 10.0 mi WNW 13.8 mph 19.6 mph N/A   Clear
9:15 AM 40.3 °F 32.2 °F 30.0 °F 67% 29.96 in 10.0 mi NW 15.0 mph 21.9 mph N/A   Clear
9:35 AM 41.9 °F 34.0 °F 30.2 °F 63% 29.97 in 10.0 mi NW 16.1 mph 21.9 mph N/A   Clear
9:55 AM 43.0 °F 35.7 °F 29.7 °F 59% 29.97 in 10.0 mi NW 15.0 mph 23.0 mph N/A   Clear
10:15 AM 45.1 °F 38.4 °F 30.2 °F 56% 29.97 in 10.0 mi NW 15.0 mph 23.0 mph N/A   Clear
10:35 AM 46.6 °F - 29.3 °F 51% 29.97 in 10.0 mi NW 18.4 mph 27.6 mph N/A   Clear
10:55 AM 47.7 °F - 28.4 °F 47% 29.98 in 10.0 mi NW 18.4 mph 26.5 mph N/A   Clear
11:15 AM 48.9 °F - 28.6 °F 45% 29.97 in 10.0 mi NW 18.4 mph 24.2 mph N/A   Clear
11:35 AM 50.0 °F - 28.4 °F 43% 29.98 in 10.0 mi NW 15.0 mph 20.7 mph N/A   Clear
11:55 AM 51.6 °F - 28.0 °F 40% 29.98 in 10.0 mi NW 18.4 mph 21.9 mph N/A   Clear
12:15 PM 52.5 °F - 29.1 °F 41% 29.98 in 10.0 mi NW 17.3 mph 25.3 mph N/A   Scattered Clouds
12:35 PM 53.2 °F - 30.4 °F 42% 29.97 in 10.0 mi NW 17.3 mph 24.2 mph N/A   Scattered Clouds
12:55 PM 53.2 °F - 30.4 °F 42% 29.96 in 10.0 mi West 15.0 mph 21.9 mph N/A   Clear
1:15 PM 53.8 °F - 30.7 °F 41% 29.95 in 10.0 mi WNW 16.1 mph 23.0 mph N/A   Clear
1:35 PM 55.2 °F - 32.0 °F 41% 29.94 in 10.0 mi NW 13.8 mph 23.0 mph N/A   Scattered Clouds
1:55 PM 55.9 °F - 32.0 °F 40% 29.93 in 10.0 mi NW 15.0 mph 27.6 mph N/A   Mostly Cloudy
2:15 PM 55.8 °F - 32.9 °F 42% 29.92 in 10.0 mi WNW 16.1 mph 21.9 mph N/A   Mostly Cloudy
2:35 PM 56.7 °F - 33.3 °F 41% 29.91 in 10.0 mi WNW 13.8 mph 17.3 mph N/A   Mostly Cloudy
2:55 PM 57.0 °F - 32.9 °F 40% 29.91 in 10.0 mi WNW 18.4 mph 21.9 mph N/A   Overcast
3:15 PM 56.7 °F - 32.0 °F 39% 29.90 in 10.0 mi WNW 12.7 mph 21.9 mph N/A   Mostly Cloudy
3:35 PM 57.2 °F - 32.0 °F 38% 29.89 in 10.0 mi NW 11.5 mph - N/A   Overcast
3:55 PM 58.6 °F - 32.5 °F 37% 29.89 in 10.0 mi NW 13.8 mph 21.9 mph N/A   Overcast
4:15 PM 59.2 °F - 30.9 °F 34% 29.89 in 10.0 mi NW 13.8 mph 28.8 mph N/A   Overcast
4:35 PM 58.3 °F - 29.8 °F 34% 29.89 in 10.0 mi NW 17.3 mph 24.2 mph N/A   Mostly Cloudy
4:55 PM 57.2 °F - 30.2 °F 36% 29.88 in 10.0 mi NW 11.5 mph 20.7 mph N/A   Scattered Clouds
5:15 PM 59.0 °F - 30.9 °F 35% 29.88 in 10.0 mi NW 10.4 mph 18.4 mph N/A   Mostly Cloudy
5:35 PM 57.9 °F - 28.2 °F 32% 29.88 in 10.0 mi NW 13.8 mph 20.7 mph N/A   Mostly Cloudy
5:55 PM 56.3 °F - 28.8 °F 35% 29.87 in 10.0 mi WNW 11.5 mph - N/A   Scattered Clouds
6:15 PM 54.7 °F - 29.3 °F 38% 29.87 in 10.0 mi WNW 6.9 mph - N/A   Clear
6:35 PM 52.0 °F - 29.3 °F 42% 29.86 in 10.0 mi Calm Calm - N/A   Clear
6:55 PM 48.6 °F - 30.0 °F 49% 29.87 in 10.0 mi Calm Calm - N/A   Clear
7:15 PM 47.8 °F - 29.7 °F 49% 29.87 in 10.0 mi Calm Calm - N/A   Clear
7:35 PM 46.4 °F - 29.3 °F 51% 29.87 in 10.0 mi Calm Calm - N/A   Clear
7:55 PM 41.7 °F - 31.3 °F 66% 29.87 in 10.0 mi Calm Calm - N/A   Clear
8:10 PM 40.5 °F - 31.8 °F 71% 29.86 in 10.0 mi Calm Calm - N/A   Clear
8:35 PM 41.4 °F - 30.9 °F 66% 29.86 in 10.0 mi Calm Calm - N/A   Clear
8:55 PM 39.0 °F - 32.2 °F 76% 29.86 in 10.0 mi Calm Calm - N/A   Clear
9:15 PM 38.5 °F - 33.8 °F 83% 29.85 in 10.0 mi Calm Calm - N/A   Clear
9:35 PM 41.4 °F - 33.1 °F 72% 29.86 in 10.0 mi Calm Calm - N/A   Scattered Clouds
9:55 PM 40.8 °F - 35.4 °F 81% 29.86 in 10.0 mi Calm Calm - N/A   Mostly Cloudy
10:15 PM 45.0 °F - 31.8 °F 60% 29.86 in 10.0 mi Calm Calm - N/A   Overcast
10:35 PM 44.4 °F - 32.9 °F 64% 29.86 in 10.0 mi Calm Calm - N/A   Overcast
10:55 PM 44.6 °F - 33.6 °F 65% 29.86 in 10.0 mi Calm Calm - N/A   Overcast
11:15 PM 46.6 °F - 32.2 °F 57% 29.86 in 10.0 mi Calm Calm - N/A   Overcast
11:35 PM 45.3 °F - 33.3 °F 63% 29.86 in 10.0 mi Calm Calm - N/A   Overcast
11:55 PM 47.7 °F - 32.4 °F 55% 29.84 in 10.0 mi Calm Calm - N/A   Overcast